sat.trackr.live / text

‹ back to catalog

STARLINK-11518 [DTC]

NORAD 62462 · 2024-254A

PAYLOAD ACTIVE UNKNOWN

§ Identity

Operator
Country
US
Launch date
2024-12-31
Launch site
AFETR
Launch vehicle
Mass (kg)
RCS (m²)

Purposes: comms

External: N2YO · Heavens-Above · Gunter

§ Orbital elements

Epoch: 2026-09-21T07:33:01.873728Z

Period
91.67 min
Inclination
43.0001°
Eccentricity
0.0000993
Mean motion
15.70860152 rev/d
Perigee alt
355.8 km
Apogee alt
357.1 km
Semi-major
6,734.6 km
B*
1.2090e-3
RAAN
124.2082°
Arg perigee
294.6573°
Mean anomaly
65.4192°
Rev number
10,017

§ Raw data

STARLINK-11518 [DTC]1 62462U 24254A   26264.31460502  .00157793  00000+0  12090-2 0  99932 62462  43.0001 124.2082 0000993 294.6573  65.4192 15.70860152100177

JSON: /api/v1/satellites/62462 · /tle

For live sub-satellite position, see the globe view (requires WebGL).

§ Visibility from observer

Set your observer location to see the next 7 days of passes ≥ 10°. The values pass through the URL so the page stays shareable.

No JS? Fill the form by hand. The geolocation button needs JavaScript.